Погода в Великокнязевке

Россия / Амурская область     50°54′40″N   127°54′36″E
темп.,
°C
ветер,
м/с
пор.,
м/с
влажн.,
%
обл.,
%
осадки,
мм/ч
давл.,
гПа
погр.,
м
16 июня, ср
ср1600:00+18ююз4995100 0.4 1000369
03:00+18ююз2396100 0.4 100087
06:00+18зюз0194100 0.1 100282
09:00+21ююв228286 0.2 1001579
12:00+25св0163100 1.1 10011228
15:00+26св1157100 1.6 10001141
18:00+23вюв3576100 0.8 1000148
21:00+19в0193100 4.3 99928
17 июня, чт
чт1700:00+18юв3897100 2.6 996208
03:00+18ююв51495100 6.4 993414
06:00+18ююв61694100 2.4 992671
09:00+18ююв102093100 6.8 9901306
12:00+17ю91492100 9.7 990841
15:00+20ю8137592 10.5 9901437
18:00+19ю714660 0.8 9921639
21:00+15ю36750 0.8 996111
18 июня, пт
пт1800:00+13юв413852 0.0 997263
03:00+13вюв51393100 0.0 996334
06:00+15вюв41293100 0.1 995430
09:00+17вюв61086100 1.3 994644
12:00+18юв6890100 2.8 994896
15:00+19ю5776100 5.6 9941140
18:00+18вюв5882100 0.9 995373
21:00+15вюв51193100 0.9 997375
19 июня, сб
сб1900:00+14вюв3895100 0.4 998345
03:00+13в3898100 0.4 999243
06:00+14всв2695100 0.0 1000246
09:00+18вюв4674100 0.0 1001834
12:00+19вюв6977100 1.0 10021260
15:00+21вюв5769100 2.5 10021351
18:00+19юв41084100 1.6 1003759
21:00+16вюв228995 2.1 100413
20 июня, вс
вс2000:00+15св229255 0.0 100517
03:00+13всв2294100 0.0 100622
06:00+14всв239099 0.0 100776
09:00+20в2466100 0.0 1007503
12:00+23в235389 0.0 10071258
15:00+25всв244890 0.0 10072020
18:00+21в236870 0.1 1007267
21:00+18ю2376100 0.1 100852